Weather History for KN60 - May, 2014

Change the Weather History Date:

Sunday, May 11, 2014

  Actual Average Record
Temperature  
Mean Temperature 45 °F -  
Max Temperature 47 °F 61 °F 65 °F (2008)
Min Temperature 42 °F 36 °F 25 °F (2005)
Degree Days  
Heating Degree Days 24    
Moisture  
Dew Point 38 °F    
Average Humidity 79    
Maximum Humidity 93    
Minimum Humidity 65    
Precipitation  
Precipitation 0.00 in - - ()
Month to date precipitation 1.25  
Year to date precipitation 5.08  
Sea Level Pressure  
Sea Level Pressure 30.06 in    
Wind  
Wind Speed 17 mph (North)    
Max Wind Speed 32 mph    
Max Gust Speed 42 mph    
Averages and records for this station are not official NWS values.
T = Trace of Precipitation, MM = Missing Value Source: NWS Daily Summary

Daily Weather History Graph

Daily Weather History Graph

Search for Another Location

Airport or City:

Trip Planner

Search our weather history database for the weather conditions in past years. The results will help you decide how hot, cold, wet, or windy it might be!

Date:

Astronomy

May. 11, 2014 Rise Set
Actual Time 6:13 AM CDT 9:11 PM CDT
Civil Twilight 5:37 AM CDT 9:47 PM CDT
Nautical Twilight 4:51 AM CDT 10:34 PM CDT
Astronomical Twilight 3:55 AM CDT 11:31 PM CDT
Moon 5:56 PM CDT (5/11) 4:35 AM CDT (5/11)
Length of Visible Light 16h 10m
Length of Day
14h 58m
Waxing Gibbous, 89% of the Moon is Illuminated
May 11
Waxing Gibbous
May 14
Full
May 21
Last Quarter
May 28
New
Jun 5
First Quarter

Hourly Weather History & Observations

Time (CDT) Temp. Windchill Dew Point Humidity Pressure Visibility Wind Dir Wind Speed Gust Speed Precip Events Conditions
12:52 AM 46.0 °F 40.6 °F 43.0 °F 89% 29.87 in - North 11.5 mph - N/A   Unknown
1:52 AM 46.0 °F 41.4 °F 43.0 °F 89% 29.88 in - NNW 9.2 mph - N/A   Unknown
2:52 AM 45.0 °F 38.9 °F 43.0 °F 93% 29.87 in - North 12.7 mph - N/A   Unknown
3:52 AM 46.0 °F 40.2 °F 43.0 °F 89% 29.91 in - North 12.7 mph - N/A   Unknown
4:52 AM 46.0 °F 39.6 °F 44.1 °F 93% 29.93 in - NNW 15.0 mph - N/A   Unknown
5:52 AM 45.0 °F 39.7 °F 43.0 °F 93% 29.93 in - North 10.4 mph - N/A   Unknown
6:52 AM 43.0 °F 37.7 °F 39.9 °F 89% 29.98 in - North 9.2 mph 19.6 mph N/A   Unknown
7:52 AM 42.1 °F 35.7 °F 39.0 °F 89% 30.01 in - North 11.5 mph - N/A   Unknown
8:52 AM 42.1 °F 33.6 °F 39.0 °F 89% 30.04 in - North 18.4 mph 27.6 mph N/A   Unknown
9:52 AM 43.0 °F 33.8 °F 39.9 °F 89% 30.03 in - North 23.0 mph - N/A   Unknown
10:52 AM 42.1 °F 32.1 °F 37.9 °F 85% 30.06 in - North 25.3 mph 34.5 mph N/A   Unknown
11:52 AM 43.0 °F 32.9 °F 37.0 °F 80% 30.09 in - North 27.6 mph 34.5 mph N/A   Unknown
12:52 PM 44.1 °F 35.4 °F 37.0 °F 76% 30.11 in - North 21.9 mph 33.4 mph N/A   Unknown
1:52 PM 43.0 °F 35.1 °F 37.0 °F 80% 30.12 in - North 17.3 mph 32.2 mph N/A   Unknown
2:52 PM 44.1 °F 36.5 °F 36.0 °F 73% 30.12 in - North 17.3 mph 32.2 mph N/A   Unknown
3:52 PM 45.0 °F 36.4 °F 35.1 °F 68% 30.12 in - North 23.0 mph 32.2 mph N/A   Unknown
4:52 PM 46.0 °F 38.3 °F 36.0 °F 68% 30.11 in - North 20.7 mph 38.0 mph N/A   Unknown
5:52 PM 44.1 °F 35.2 °F 35.1 °F 71% 30.12 in - North 23.0 mph 35.7 mph N/A   Unknown
6:52 PM 44.1 °F 35.7 °F 34.0 °F 68% 30.13 in - North 20.7 mph 34.5 mph N/A   Unknown
7:52 PM 45.0 °F 37.6 °F 34.0 °F 65% 30.15 in - NNE 17.3 mph 29.9 mph N/A   Unknown
8:52 PM 42.1 °F 35.7 °F 35.1 °F 76% 30.19 in - NNE 11.5 mph 17.3 mph N/A   Unknown
9:52 PM 39.9 °F 32.9 °F 34.0 °F 79% 30.18 in - North 11.5 mph - N/A   Unknown
10:52 PM 37.9 °F 30.5 °F 34.0 °F 86% 30.20 in - North 11.5 mph - N/A   Unknown
11:52 PM 37.0 °F 28.9 °F 34.0 °F 89% 30.19 in - North 12.7 mph - N/A   Unknown